Charlottetown, Prince Edward Island

1:04 AM ADT on August 21, 2017 (GMT -0300)
Charlottetown

Weather History for CYYG - May, 2012

Change the Weather History Date:

Tuesday, May 29, 2012

  Actual Average Record
Temperature  
Mean Temperature 43 °F -  
Max Temperature 50 °F 67 °F 77 °F (2002)
Min Temperature 36 °F 49 °F 29 °F (2014)
Degree Days  
Heating Degree Days 22    
Moisture  
Dew Point 35 °F    
Average Humidity 71    
Maximum Humidity 100    
Minimum Humidity 37    
Precipitation  
Precipitation 0.01 in 0.12 in - ()
Sea Level Pressure  
Sea Level Pressure 30.10 in    
Wind  
Wind Speed 5 mph ()    
Max Wind Speed 12 mph    
Max Gust Speed -    
Visibility 14.7 miles    
Events Rain    
Averages and records for this station are not official NWS values.
T = Trace of Precipitation, MM = Missing Value Source: Averaged Metar Reports

Daily Weather History Graph

Daily Weather History Graph

Search for Another Location

Airport or City:

Trip Planner

Search our weather history database for the weather conditions in past years. The results will help you decide how hot, cold, wet, or windy it might be!

Date:

Astronomy

May. 29, 2012 Rise Set
Actual Time 5:25 AM ADT 8:54 PM ADT
Civil Twilight 4:48 AM ADT 9:32 PM ADT
Nautical Twilight 3:59 AM ADT 10:21 PM ADT
Astronomical Twilight 2:54 AM ADT 11:26 PM ADT
Moon 1:59 PM ADT (5/29) 1:39 AM ADT (5/29)
Length of Visible Light 16h 43m
Length of Day
15h 28m
First Quarter, 59% of the Moon is Illuminated
May 29
First Quarter
Jun 4
Full
Jun 11
Last Quarter
Jun 19
New
Jun 27
First Quarter

Hourly Weather History & Observations

Time (ADT) Temp. Windchill Dew Point Humidity Pressure Visibility Wind Dir Wind Speed Gust Speed Precip Events Conditions
12:00 AM 41.0 °F 38.0 °F 39.2 °F 93% 30.11 in 15.0 mi ENE 4.6 mph - N/A   Partly Cloudy
1:00 AM 39.2 °F 34.2 °F 35.6 °F 87% 30.10 in 15.0 mi ENE 6.9 mph - N/A   Partly Cloudy
2:00 AM 39.2 °F 37.0 °F 35.6 °F 87% 30.10 in 15.0 mi East 3.5 mph - N/A   Partly Cloudy
3:00 AM 40 °F - 35 °F 78% 30.10 in 15 mi East 3.5 mph - -   Scattered Clouds
3:00 AM 39.2 °F 37.0 °F 35.6 °F 87% 30.10 in 15.0 mi East 3.5 mph - N/A   Mostly Cloudy
4:00 AM 39.2 °F 37.0 °F 35.6 °F 87% 30.11 in 15.0 mi East 3.5 mph - N/A   Scattered Clouds
5:00 AM 37.4 °F - 35.6 °F 93% 30.11 in 15.0 mi East 2.3 mph - N/A   Scattered Clouds
6:00 AM 39.2 °F 35.9 °F 33.8 °F 81% 30.12 in 15.0 mi East 4.6 mph - N/A   Mostly Cloudy
7:00 AM 41.0 °F 39.0 °F 35.6 °F 81% 30.13 in 15.0 mi East 3.5 mph - N/A   Mostly Cloudy
8:00 AM 42.8 °F 41.1 °F 35.6 °F 76% 30.14 in 15.0 mi East 3.5 mph - N/A   Mostly Cloudy
9:00 AM 45 °F - 33 °F 51% 30.16 in 15 mi East 6.9 mph - -   Overcast
9:00 AM 44.6 °F 40.7 °F 33.8 °F 66% 30.16 in 15.0 mi East 6.9 mph - N/A   Overcast
10:00 AM 48.2 °F - 33.8 °F 58% 30.13 in 15.0 mi SE 6.9 mph - N/A   Overcast
11:00 AM 48.2 °F - 32.0 °F 54% 30.13 in 15.0 mi SSE 11.5 mph - N/A   Overcast
12:00 PM 48.2 °F - 35.6 °F 62% 30.12 in 15.0 mi SSW 10.4 mph - N/A   Overcast
1:00 PM 48.2 °F - 30.2 °F 50% 30.13 in 15.0 mi SSE 5.8 mph - N/A   Overcast
2:00 PM 48.2 °F - 30.2 °F 50% 30.10 in 15.0 mi ESE 9.2 mph - N/A   Overcast
3:00 PM 48 °F - 30 °F 37% 30.12 in 15 mi SE 5.8 mph - -   Overcast
3:00 PM 48.2 °F - 30.2 °F 50% 30.12 in 15.0 mi SE 5.8 mph - N/A   Overcast
3:36 PM 48.2 °F - - N/A% - 12.0 mi South 6.9 mph - N/A Rain Light Rain Showers
4:00 PM 48.2 °F - 32.0 °F 54% 30.09 in 15.0 mi SSE 6.9 mph - N/A   Overcast
4:39 PM 48.2 °F - - N/A% - 15.0 mi SE 6.9 mph - N/A   Overcast
5:00 PM 46.4 °F 43.5 °F 30.2 °F 53% 30.09 in 15.0 mi SE 5.8 mph - N/A   Overcast
6:00 PM 46.4 °F 42.9 °F 32.0 °F 57% 30.07 in 15.0 mi SSE 6.9 mph - N/A   Overcast
7:00 PM 46.4 °F 44.3 °F 33.8 °F 62% 30.06 in 15.0 mi SE 4.6 mph - N/A   Overcast
7:36 PM 46.4 °F 42.4 °F - N/A% - 15.0 mi SE 8.1 mph - N/A Rain Light Rain Showers
8:00 PM 44.6 °F 39.7 °F 35.6 °F 71% 30.07 in 12.0 mi South 9.2 mph - N/A Rain Light Rain Showers
9:00 PM 42 °F - 39 °F 85% 30.07 in 15 mi South 10.4 mph - - Rain Light Rain Showers
9:00 PM 42.8 °F 36.6 °F 39.2 °F 87% 30.07 in 15.0 mi South 11.5 mph - N/A Rain Light Rain Showers
9:41 PM 41.0 °F 37.1 °F - N/A% - 10.0 mi SSE 5.8 mph - N/A Rain Light Rain Showers
10:00 PM 41.0 °F 37.1 °F 41.0 °F 100% 30.08 in 15.0 mi SE 5.8 mph - N/A Rain Light Rain Showers
10:13 PM 42.8 °F 39.3 °F - N/A% - 15.0 mi SSE 5.8 mph - N/A   Overcast
10:44 PM 42.8 °F 37.5 °F - N/A% - 15.0 mi SSE 9.2 mph - N/A   Overcast
11:00 PM 42.8 °F 37.5 °F 41.0 °F 93% 30.04 in 15.0 mi SSE 9.2 mph - N/A   Overcast